Home   Weather   Leirvik   Past weeks

Flag for Norway Past Weather in Leirvik, Norway — Yesterday and Last 2 Weeks

Now
39 °F

Light rain. Partly cloudy.


Feels Like: 34 °F
Forecast: 37 / 42 °F
Wind: 7 mph from Southeast

Location: Stord / Soerstokken

Current Time: Dec 18, 2017 at 9:40:49 pm

Latest Report: Dec 18, 2017 at 6:50 pm


Visibility: N/A

Pressure: 30.21 "Hg

Humidity: 93%

Dew Point: 37 °F

Location of LeirvikLocation

Past Weather in Leirvik — Graph

°F

Leirvik Temperature Yesterday

Maximum temperature yesterday: 37 °F (at 2:50 pm)
Minimum temperature yesterday: 34 °F (at 12:20 pm)
Average temperature yesterday: 37 °F

High & Low Weather Summary for the Past Weeks

 TemperatureHumidityPressure
High50 °F (Dec 7, 9:20 am)100% (Dec 5, 6:20 am)30.21 "Hg (Dec 5, 6:20 am)
Low28 °F (Dec 15, 7:50 pm)60% (Dec 11, 5:50 pm)28.65 "Hg (Dec 7, 6:20 pm)
Average39 °F88%29.45 "Hg
* Reported Dec 3 6:20 pm — Dec 18 6:50 pm, Leirvik. Weather by CustomWeather, © 2017

Note: Actual official high and low records may vary slightly from our data, if they occured in-between our weather recording intervals... More about our weather records

Advertising

Leirvik Weather History for the Previous 24 Hours

Scroll right to see more
 ConditionsComfort  
Time TempWeatherWind HumidityBarometerVisibility
6:50 pm
Mon, Dec 18
39 °FLight rain. Partly cloudy.7 mph93%30.21 "HgN/A
6:20 pm39 °FRain. Partly cloudy.6 mph93%30.21 "HgN/A
5:50 pm39 °FRain. Partly cloudy.8 mph93%30.21 "HgN/A
5:20 pm39 °FLight rain. Partly cloudy.7 mph93%30.21 "HgN/A
4:50 pm39 °FLight rain. Passing clouds.6 mph93%30.18 "HgN/A
4:20 pm39 °FLight rain. Partly cloudy.6 mph87%30.18 "HgN/A
3:50 pm39 °FPartly cloudy.7 mph93%30.18 "HgN/A
3:20 pm39 °FPartly sunny.7 mph87%30.18 "HgN/A
2:50 pm39 °FScattered clouds.5 mph93%30.15 "HgN/A
2:20 pm39 °FScattered clouds.2 mph93%30.15 "HgN/A
1:50 pm37 °FScattered clouds.2 mph100%30.15 "HgN/A
12:50 pm39 °FScattered clouds.No wind93%30.15 "HgN/A
12:20 pm39 °FScattered clouds.1 mph87%30.15 "HgN/A
11:50 am37 °FScattered clouds.1 mph93%30.15 "HgN/A
11:20 am39 °FScattered clouds.1 mph87%30.15 "HgN/A
10:50 am39 °FScattered clouds.1 mph93%30.12 "HgN/A
10:20 am39 °FScattered clouds.1 mph93%30.09 "HgN/A
9:20 am39 °FPartly cloudy.2 mph93%30.09 "HgN/A
8:50 am39 °FPassing clouds.2 mph93%30.07 "HgN/A
8:20 am39 °FPassing clouds.3 mph93%30.07 "HgN/A
7:50 am39 °FPassing clouds.3 mph93%30.04 "HgN/A
7:20 am39 °FLight rain. Partly cloudy.7 mph93%30.01 "HgN/A
6:50 am41 °FRain. Partly cloudy.13 mph87%30.01 "HgN/A
6:20 am39 °FLight rain. Partly cloudy.6 mph100%30.01 "HgN/A
Weather by CustomWeather, © 2017

See weather overview